Terug naar catalogus

KUIPER-00034

ActiefCommunicatieLEO
NORAD 63747·PAYLOAD·🇺🇸 United States

Gelanceerd Apr 28, 2025 vanaf Cape Canaveral Space Force Station

Loading…

Volgende Passages (komende 24 uur)

TLE

VersSource: CelesTrak SupGP

Epoch: Sep 14, 2026, 22:15 UTC

1 63747C 25088Z   26257.92750000 -.00001278  00000+0 -16715-3 0  2574
2 63747  51.9017 331.3140 0000647  82.2744 313.3250 14.79964381    11

Volg KUIPER-00034 in realtime met AllMySat

Download on the App Store